Munising, MI

3:05 AM EDT on May 25, 2017 (GMT -0400)
Munising

Weather History for KP53 - August, 2013

Change the Weather History Date:

Wednesday, August 28, 2013

  Actual Average (KISQ) Record (KISQ)
Temperature  
Mean Temperature 70 °F -  
Max Temperature 75 °F 74 °F 90 °F (1953)
Min Temperature 64 °F 52 °F 35 °F (2007)
Cooling Degree Days 4    
Growing Degree Days 20 (Base 50)    
Moisture  
Dew Point 64 °F    
Average Humidity 85    
Maximum Humidity 93    
Minimum Humidity 69    
Precipitation  
Precipitation 0.00 in - - ()
Sea Level Pressure  
Sea Level Pressure 30.00 in    
Wind  
Wind Speed 6 mph (North)    
Max Wind Speed 14 mph    
Max Gust Speed -    
Averages and records for this station are not official NWS values.
T = Trace of Precipitation, MM = Missing Value Source: NWS Daily Summary

Daily Weather History Graph

Daily Weather History Graph

Search for Another Location

Airport or City:

Trip Planner

Search our weather history database for the weather conditions in past years. The results will help you decide how hot, cold, wet, or windy it might be!

Date:

Astronomy

Aug. 28, 2013 Rise Set
Actual Time 7:02 AM EDT 8:32 PM EDT
Civil Twilight 6:30 AM EDT 9:03 PM EDT
Nautical Twilight 5:52 AM EDT 9:41 PM EDT
Astronomical Twilight 5:11 AM EDT 10:22 PM EDT
Moon 12:00 AM EDT (8/28) 3:19 PM EDT (8/28)
Length of Visible Light 14h 33m
Length of Day
13h 30m
Waning Gibbous, 47% of the Moon is Illuminated
Aug 28
Waning Gibbous
Sep 5
New
Sep 12
First Quarter
Sep 19
Full
Sep 26
Last Quarter

Hourly Weather History & Observations

Time (EDT) Temp. Dew Point Humidity Pressure Visibility Wind Dir Wind Speed Gust Speed Precip Events Conditions
12:56 AM 66.9 °F 64.9 °F 93% 29.91 in - NNW 6.9 mph - N/A   Unknown
1:56 AM 66.9 °F 64.9 °F 93% 29.91 in - NW 3.5 mph - N/A   Unknown
2:56 AM 66.9 °F 64.9 °F 93% 29.91 in - NNW 6.9 mph - N/A   Unknown
3:56 AM 66.0 °F 64.0 °F 93% 29.93 in - NNW 6.9 mph - N/A   Unknown
4:56 AM 64.9 °F 63.0 °F 93% 29.95 in - NNW 6.9 mph - N/A   Unknown
5:56 AM 64.9 °F 63.0 °F 93% 29.96 in - North 6.9 mph - N/A   Unknown
6:56 AM 64.0 °F 62.1 °F 93% 29.97 in - WNW 4.6 mph - N/A   Unknown
7:56 AM 64.0 °F 62.1 °F 93% 29.98 in - NNW 4.6 mph - N/A   Unknown
8:56 AM 64.0 °F 62.1 °F 93% 30.00 in - NNW 6.9 mph - N/A   Unknown
9:56 AM 64.9 °F 63.0 °F 93% 30.00 in - North 5.8 mph - N/A   Unknown
10:56 AM 66.0 °F 64.0 °F 93% 30.00 in - NNE 3.5 mph - N/A   Unknown
11:56 AM 71.1 °F 64.9 °F 81% 30.02 in - NNE 5.8 mph - N/A   Unknown
12:56 PM 73.0 °F 64.9 °F 76% 30.02 in - North 6.9 mph - N/A   Unknown
1:46 PM 71.6 °F 64.4 °F 78% 30.04 in - NE 12.7 mph - N/A   Unknown
1:56 PM 71.1 °F 64.9 °F 81% 30.04 in - NE 13.8 mph - N/A   Unknown
2:56 PM 72.0 °F 64.9 °F 78% 30.04 in - NE 11.5 mph - N/A   Unknown
3:56 PM 73.0 °F 66.0 °F 79% 30.03 in - NE 8.1 mph - N/A   Unknown
4:56 PM 73.9 °F 64.9 °F 73% 30.03 in - NE 5.8 mph - N/A   Unknown
5:56 PM 75.0 °F 64.9 °F 71% 30.02 in - Calm Calm - N/A   Unknown
6:56 PM 75.0 °F 64.0 °F 69% 30.03 in - Calm Calm - N/A   Unknown
7:56 PM 73.0 °F 66.0 °F 79% 30.03 in - Calm Calm - N/A   Unknown
8:56 PM 69.1 °F 64.0 °F 84% 30.04 in - Calm Calm - N/A   Unknown
9:56 PM 66.9 °F 63.0 °F 87% 30.05 in - South 3.5 mph - N/A   Unknown
10:56 PM 66.0 °F 62.1 °F 87% 30.05 in - South 3.5 mph - N/A   Unknown
11:56 PM 64.9 °F 62.1 °F 90% 30.04 in - SSW 3.5 mph - N/A   Unknown